Time,TemperatureF,DewpointF,PressureIn,WindDirection,WindDirectionDegrees,WindSpeedMPH,WindSpeedGustMPH,Humidity,HourlyPrecipIn,Conditions,Clouds,dailyrainin,SolarRadiationWatts/m^2,SoftwareType,DateUTC
2013-10-10 01:43:00,47.0,46.0,-100.00,SE,126,2.0,4.0,96,0.00,,,0.00,0.000000,,2013-10-10 06:43:00,
2013-10-10 01:53:00,47.0,46.0,-100.00,SE,126,2.0,4.0,96,0.00,,,0.00,0.000000,,2013-10-10 06:53:00,
2013-10-10 02:02:00,47.0,46.0,-100.00,SE,126,2.0,4.0,96,0.00,,,0.00,0.000000,,2013-10-10 07:02:00,
2013-10-10 04:43:00,45.0,44.0,-100.00,ESE,115,1.0,4.0,96,-99.99,,,0.00,0.000000,,2013-10-10 09:43:00,
2013-10-10 04:53:00,45.0,44.0,-100.00,ESE,115,1.0,4.0,96,-99.99,,,0.00,0.000000,,2013-10-10 09:53:00,
2013-10-10 05:03:00,45.0,44.0,-100.00,ESE,115,1.0,4.0,96,-99.99,,,0.00,0.000000,,2013-10-10 10:03:00,
2013-10-10 09:42:00,55.0,49.0,-100.00,SE,128,3.0,6.0,79,-99.99,,,0.00,104.000000,,2013-10-10 14:42:00,
2013-10-10 09:52:00,55.0,49.0,-100.00,SE,128,3.0,6.0,79,-99.99,,,0.00,104.000000,,2013-10-10 14:52:00,
2013-10-10 10:02:00,55.0,49.0,-100.00,SE,128,3.0,6.0,79,-99.99,,,0.00,104.000000,,2013-10-10 15:02:00,
2013-10-10 10:43:00,63.0,48.0,-100.00,SE,145,5.0,11.0,58,0.00,,,0.00,257.000000,,2013-10-10 15:43:00,
2013-10-10 10:54:00,63.0,48.0,-100.00,SE,145,5.0,11.0,58,0.00,,,0.00,257.000000,,2013-10-10 15:54:00,
2013-10-10 11:03:00,63.0,48.0,-100.00,SE,145,5.0,11.0,58,0.00,,,0.00,257.000000,,2013-10-10 16:03:00,
2013-10-10 11:42:00,67.0,49.0,-100.00,SSE,154,5.0,13.0,52,0.00,,,0.00,360.000000,,2013-10-10 16:42:00,
2013-10-10 11:53:00,67.0,49.0,-100.00,SSE,154,5.0,13.0,52,0.00,,,0.00,360.000000,,2013-10-10 16:53:00,
2013-10-10 12:02:00,67.0,49.0,-100.00,SSE,154,5.0,13.0,52,0.00,,,0.00,360.000000,,2013-10-10 17:02:00,
2013-10-10 12:42:00,71.0,49.0,-100.00,SSE,158,6.0,14.0,46,0.00,,,0.00,504.000000,,2013-10-10 17:42:00,
2013-10-10 12:53:00,71.0,49.0,-100.00,SSE,158,6.0,14.0,46,0.00,,,0.00,504.000000,,2013-10-10 17:53:00,
2013-10-10 13:02:00,71.0,49.0,-100.00,SSE,158,6.0,14.0,46,0.00,,,0.00,504.000000,,2013-10-10 18:02:00,
2013-10-10 13:42:00,74.0,49.0,-100.00,SSE,161,7.0,17.0,42,0.00,,,-99.99,580.000000,,2013-10-10 18:42:00,
2013-10-10 13:52:00,74.0,49.0,-100.00,SSE,161,7.0,17.0,42,0.00,,,-99.99,580.000000,,2013-10-10 18:52:00,
2013-10-10 14:01:00,74.0,49.0,-100.00,SSE,161,7.0,17.0,42,0.00,,,-99.99,580.000000,,2013-10-10 19:01:00,
2013-10-10 14:42:00,77.0,49.0,-100.00,South,169,7.0,17.0,37,0.00,,,0.00,579.000000,,2013-10-10 19:42:00,
2013-10-10 14:53:00,77.0,49.0,-100.00,South,169,7.0,17.0,37,0.00,,,0.00,579.000000,,2013-10-10 19:53:00,
2013-10-10 15:02:00,77.0,49.0,-100.00,South,169,7.0,17.0,37,0.00,,,0.00,579.000000,,2013-10-10 20:02:00,
2013-10-10 15:42:00,78.0,48.0,-100.00,SSE,163,6.0,16.0,35,0.00,,,0.00,528.000000,,2013-10-10 20:42:00,
2013-10-10 15:52:00,78.0,48.0,-100.00,SSE,163,6.0,16.0,35,0.00,,,0.00,528.000000,,2013-10-10 20:52:00,
2013-10-10 16:03:00,78.0,48.0,-100.00,SSE,163,6.0,16.0,35,0.00,,,0.00,528.000000,,2013-10-10 21:03:00,
2013-10-10 16:44:00,76.0,49.0,-100.00,SE,142,7.0,15.0,39,0.00,,,0.00,425.000000,,2013-10-10 21:44:00,
2013-10-10 16:54:00,76.0,49.0,-100.00,SE,142,7.0,15.0,39,0.00,,,0.00,425.000000,,2013-10-10 21:54:00,
2013-10-10 17:04:00,76.0,49.0,-100.00,SE,142,7.0,15.0,39,0.00,,,0.00,425.000000,,2013-10-10 22:04:00,
2013-10-10 17:43:00,75.0,50.0,-100.00,SSE,156,4.0,16.0,41,0.00,,,0.00,278.000000,,2013-10-10 22:43:00,
2013-10-10 17:53:00,75.0,50.0,-100.00,SSE,156,4.0,16.0,41,0.00,,,0.00,278.000000,,2013-10-10 22:53:00,
2013-10-10 18:03:00,75.0,50.0,-100.00,SSE,156,4.0,16.0,41,0.00,,,0.00,278.000000,,2013-10-10 23:03:00,
2013-10-10 18:43:00,69.0,48.0,-100.00,SE,129,3.0,13.0,48,0.00,,,0.00,91.000000,,2013-10-10 23:43:00,
2013-10-10 18:53:00,69.0,48.0,-100.00,SE,129,3.0,13.0,48,0.00,,,0.00,91.000000,,2013-10-10 23:53:00,
2013-10-10 19:02:00,69.0,48.0,-100.00,SE,129,3.0,13.0,48,0.00,,,0.00,91.000000,,2013-10-11 00:02:00,
2013-10-10 19:42:00,63.0,49.0,-100.00,ESE,117,2.0,7.0,60,0.00,,,0.00,5.000000,,2013-10-11 00:42:00,
2013-10-10 19:52:00,63.0,49.0,-100.00,ESE,117,2.0,7.0,60,0.00,,,0.00,5.000000,,2013-10-11 00:52:00,
2013-10-10 20:01:00,63.0,49.0,-100.00,ESE,117,2.0,7.0,60,0.00,,,0.00,5.000000,,2013-10-11 01:01:00,
2013-10-10 20:42:00,63.0,49.0,-100.00,ESE,121,2.0,7.0,61,0.00,,,0.00,0.000000,,2013-10-11 01:42:00,
2013-10-10 20:52:00,63.0,49.0,-100.00,ESE,121,2.0,7.0,61,0.00,,,0.00,0.000000,,2013-10-11 01:52:00,
2013-10-10 21:02:00,63.0,49.0,-100.00,ESE,121,2.0,7.0,61,0.00,,,0.00,0.000000,,2013-10-11 02:02:00,
2013-10-10 21:42:00,63.0,49.0,-100.00,SE,132,3.0,9.0,60,0.00,,,0.00,0.000000,,2013-10-11 02:42:00,
2013-10-10 21:52:00,63.0,49.0,-100.00,SE,132,3.0,9.0,60,0.00,,,0.00,0.000000,,2013-10-11 02:52:00,
2013-10-10 22:02:00,63.0,49.0,-100.00,SE,132,3.0,9.0,60,0.00,,,0.00,0.000000,,2013-10-11 03:02:00,
2013-10-10 22:45:00,62.0,49.0,-100.00,ESE,123,2.0,7.0,63,0.00,,,0.00,0.000000,,2013-10-11 03:45:00,
2013-10-10 22:54:00,62.0,49.0,-100.00,ESE,123,2.0,7.0,63,0.00,,,0.00,0.000000,,2013-10-11 03:54:00,
2013-10-10 23:04:00,62.0,49.0,-100.00,ESE,123,2.0,7.0,63,0.00,,,0.00,0.000000,,2013-10-11 04:04:00,
2013-10-10 23:44:00,60.0,49.0,-100.00,ESE,120,3.0,6.0,66,0.00,,,0.00,0.000000,,2013-10-11 04:44:00,
2013-10-10 23:53:00,60.0,49.0,-100.00,ESE,120,3.0,6.0,66,0.00,,,0.00,0.000000,,2013-10-11 04:53:00,